Location: 3 Angels Observatory
(30.5437°N, 88.5068°W)
Time: 11:11:01
(UTC-05:00)

Daily predictions for brighter satellites

Satellite Brightness Start Highest point End
(mag) Time Altitude Azimuth Time Altitude Azimuth Time Altitude Azimuth
Cosmos 2026 Rocket 4.2 20:15:22 10° N 20:21:26 76° W 20:27:32 10° S
Cosmos 1048 Rocket 4.3 20:20:18 10° S 20:25:20 47° ESE 20:30:27 10° NNE
Resurs 01 Rocket 2.6 20:22:33 10° SE 20:26:22 30° ENE 20:30:13 10° NNE
Cosmos 2058 Rocket 4.1 20:22:15 10° NNW 20:26:30 49° W 20:30:41 10° SSW
ERS-2 3.8 20:26:40 10° ESE 20:29:19 19° ENE 20:32:00 10° NNE
USA 186 2.0 20:26:13 10° SSE 20:29:23 49° ENE 20:32:23 10° N
OAO 3 Rocket 4.1 20:25:22 10° W 20:30:14 52° N 20:35:03 10° ENE
Cosmos 1758 3.5 20:26:25 10° N 20:30:29 79° W 20:34:30 10° S
Cosmos 158 Rocket 4.4 20:25:51 10° SSW 20:31:10 73° WNW 20:36:24 10° NNE
Cosmos 1825 Rocket 4.2 20:31:53 10° SSE 20:35:57 36° E 20:40:02 10° NNE
SL-8 R/B 4.4 20:31:50 10° WSW 20:36:36 61° NW 20:41:23 10° NE
Hubble Space Telescope 2.6 20:36:15 10° WSW 20:39:17 20° SSW 20:42:18 10° SSE
Cosmos 1943 3.2 20:34:38 10° NNW 20:40:19 87° ENE 20:45:56 10° SSE
Cosmos 1315 Rocket 3.5 20:37:09 10° SSE 20:40:50 35° E 20:44:34 10° NNE
Spot 2 Rocket 4.1 20:42:29 10° SE 20:47:08 39° ENE 20:51:49 10° N
Cosmos 1953 2.7 20:43:50 10° NNW 20:47:47 66° W 20:51:46 10° S
Cosmos 1420 Rocket 4.1 20:49:12 10° N 20:54:18 57° ENE 20:58:51 13° SSE
Cosmos 1844 Rocket 2.8 20:48:58 10° S 20:54:28 55° ESE 20:59:59 10° NNE
Cosmos 1452 Rocket 3.5 20:49:39 10° N 20:54:56 69° ENE 20:59:53 11° SSE
SJ-6B 4.4 20:53:07 10° SSW 20:56:41 35° W 21:00:21 10° NNW
NOAA 11 4.2 20:53:23 10° SSE 20:58:43 64° ENE 21:04:04 10° N
Cosmos 1844 4.0 20:55:27 10° S 21:00:49 46° ESE 21:06:17 10° NNE
YAOGAN 6 3.9 21:00:03 10° SSW 21:03:22 38° W 21:06:39 10° NNW
Cosmos 1238 Rocket 2.5 21:03:43 20° SSE 21:05:19 39° E 21:08:07 10° NNE
Cosmos 2285 Rocket 4.0 20:59:29 10° SSW 21:05:50 85° ESE 21:12:09 10° NNE
Cosmos 1400 Rocket 4.4 21:02:12 10° SSW 21:05:58 37° W 21:09:42 10° N
CZ-3C R/B 3.2 20:48:26 10° WSW 21:06:04 26° S 21:09:27 17° SE
ATLAS 3B R/B 4.4 21:04:29 10° N 21:08:26 16° NE 21:12:21 10° E
Lacrosse 5 4.2 21:07:50 10° WSW 21:12:07 27° NW 21:16:25 10° NNE
BREEZE-M R/B 2.1 21:09:11 10° NW 21:12:10 58° SW 21:13:05 31° SSE
Cosmos 2266 Rocket 4.0 21:07:18 10° N 21:13:41 90° WNW 21:19:57 10° S
Cosmos 1346 Rocket 3.8 21:14:16 10° NNE 21:17:51 30° ENE 21:19:03 25° ESE
SAR-Lupe-3 4.4 21:14:30 10° NNE 21:18:05 87° ESE 21:21:39 10° SSW
Meteor 1-24 Rocket 3.8 21:12:45 10° S 21:18:45 75° E 21:24:45 10° NNE
Cosmos-2242 3.8 21:15:46 10° NNE 21:19:47 34° E 21:21:20 26° ESE
Cosmos 494 Rocket 4.0 21:14:51 10° S 21:19:58 60° ESE 21:25:09 10° NNE
H-2A R/B 2.9 21:18:46 22° ESE 21:21:20 35° ENE 21:26:09 10° N
Timation 1 Rocket 4.3 21:16:07 10° SSW 21:22:04 86° ESE 21:28:04 10° NNE
Cosmos 1269 Rocket 4.5 21:18:43 10° SSW 21:23:58 65° WNW 21:29:14 10° N
Nadezhda 2 Rocket 4.4 21:27:05 10° N 21:33:16 68° E 21:37:04 24° SSE
ATLAS 2AS CENTAUR R/B 3.7 21:26:48 10° SW 21:34:19 59° WNW 21:42:18 10° NNE
Centaur D-1AR AC-36 3.2 21:20:18 10° W 21:36:44 39° SSW 21:38:59 27° SSE
Aurora 2 Rocket 3.8 21:31:22 10° WSW 21:37:05 54° S 21:41:56 24° ESE
Cosmos 1908 4.0 21:34:22 10° NNE 21:37:54 34° E 21:38:07 34° E
Iridium 4 Rocket 4.3 21:35:23 10° SSW 21:41:00 57° W 21:46:15 10° N
Cosmos 1553 Rocket 4.0 21:37:48 25° SSE 21:41:11 56° E 21:47:06 10° NNE
SEDSat Delta rocket 3.3 21:35:59 10° WSW 21:41:24 61° SSE 21:43:33 32° E
Cosmos 1340 4.3 21:40:07 10° NNE 21:42:33 21° ENE 21:42:33 21° ENE
MetOp-B 4.2 21:43:42 34° SE 21:45:53 62° ENE 21:51:10 10° N
Palapa 6 Rocket 4.3 21:42:05 10° WSW 21:46:49 35° S 21:47:51 33° SSE
ERS-1 Rocket 3.4 21:46:45 36° ESE 21:48:03 44° ENE 21:52:50 10° N
Cosmos 1674 2.8 21:50:20 37° SSW 21:51:42 73° W 21:55:31 10° N
Cosmos 1437 2.9 21:49:17 10° NNW 21:52:25 64° W 21:52:33 63° WSW
DMSP B5D2-2 4.0 21:49:48 10° NNE 21:54:58 61° E 21:56:33 42° SSE
Cosmos 2251 Rocket 3.4 21:56:52 35° S 21:59:06 70° ESE 22:04:25 10° NNE
USA 215 3.2 21:58:50 36° SE 22:01:46 82° SW 22:08:21 10° NW
Meteor 2-1 Rocket 4.3 21:55:59 10° N 22:01:54 70° E 22:03:44 44° SSE
Cosmos 724 4.4 21:55:53 10° NNW 22:01:57 72° ENE 22:03:55 44° SE
Terra 3.6 22:02:30 18° ENE 22:02:30 18° ENE 22:05:30 10° NNE
Resurs 01 Rocket 4.0 21:59:50 10° SW 22:02:48 18° W 22:05:48 10° NW
Meteor 2-10 4.4 21:58:30 10° N 22:03:52 52° E 22:04:54 46° ESE
H-2A R/B 4.0 22:09:35 31° ESE 22:09:35 31° ESE 22:21:18 10° E
Cosmos 1726 2.6 22:04:08 10° N 22:07:13 51° NE 22:07:13 51° NE
Cosmos 2221 4.3 22:06:01 10° NNE 22:08:10 19° ENE 22:08:10 19° ENE
NOSS 3-4 (A) 3.3 22:05:48 10° SSW 22:11:57 88° ESE 22:18:15 10° NNE
NOSS 3-4 (C) 3.3 22:05:54 10° SSW 22:12:02 87° ESE 22:18:20 10° NNE
Cosmos 921 Rocket 3.1 22:08:34 10° NNW 22:13:04 76° WSW 22:13:34 67° SSW
OAO 3 Rocket 3.6 22:09:17 10° WNW 22:14:11 59° N 22:15:31 43° ENE
USA 245 4.4 22:12:58 46° SSE 22:14:57 86° ENE 22:21:25 10° N
Delta 198 4.4 22:12:02 10° WSW 22:17:29 46° SSW 22:17:29 46° SSW
OAO 3 Copernicus 4.4 22:13:46 10° WNW 22:18:43 57° SSW 22:18:43 57° SSW
Cosmos 1461 3.6 22:15:56 20° SW 22:18:56 60° WNW 22:23:37 10° NNE
CZ-2C R/B 4.4 22:19:33 28° ENE 22:19:54 28° ENE 22:24:44 10° NNE
ARGOS 3.9 22:17:48 30° SSW 22:20:03 47° W 22:25:17 10° NNW
Cosmos 2278 Rocket 2.2 22:18:53 33° SSW 22:21:33 83° WNW 22:27:14 10° NNE
ATLAS 3B CENTAUR R/B 3.8 22:11:00 10° WSW 22:31:09 64° S 22:35:03 38° ESE
Meteor 1-21 Rocket 4.4 22:30:00 45° SSW 22:31:51 75° W 22:37:41 10° N
Nimbus 7 Rocket 4.5 22:35:32 10° NNE 22:41:14 59° E 22:41:14 59° E
Cosmos 1745 Rocket 4.0 22:36:36 10° N 22:42:53 78° W 22:43:58 62° SSW
Meteor 2-13 Rocket 4.3 22:37:01 10° N 22:43:08 87° W 22:43:51 71° S
SPOT 5 3.0 22:45:39 72° W 22:45:39 72° W 22:50:50 10° NNW
COSMOS 2406 3.3 22:40:21 10° NNW 22:46:02 65° WSW 22:46:26 63° SW
ATLAS 5 CENTAUR R/B 2.6 22:55:48 44° WNW 22:55:53 44° WNW 23:00:22 10° NNE
ATLAS 3B R/B 2.4 22:53:13 10° NNW 22:59:49 82° WSW 23:00:07 79° SSW
SPOT 1/Viking Rocket 4.0 23:00:46 52° W 23:00:46 52° W 23:05:33 10° NNW
H-2A R/B 3.9 22:59:23 20° WSW 23:00:44 22° W 23:04:48 10° NW
Cosmos 1626 4.5 23:06:16 22° N 23:06:16 22° N 23:07:45 10° N
USA 238 DEB 4.0 22:57:15 10° NW 23:04:15 57° WSW 23:05:06 54° SW
USA 238 4.0 22:57:21 10° NW 23:04:22 58° WSW 23:05:12 55° SW
Cosmos 2297 4.0 23:06:54 61° NNE 23:06:54 61° NNE 23:11:34 10° NNE
Cosmos 1241 Rocket 4.3 23:07:46 83° NNW 23:07:46 83° NNW 23:13:50 10° NNE
Helios 1B rocket 4.2 23:07:04 10° N 23:10:02 29° NW 23:10:02 29° NW
Cosmos 2082 Rocket 3.1 23:10:21 10° N 23:14:50 39° NE 23:14:50 39° NE
NOSS 3-2 (A) 4.0 23:08:15 10° NNW 23:16:08 79° WSW 23:17:06 70° S
Cosmos 1709 Rocket 3.9 23:09:56 10° N 23:15:45 79° NNW 23:15:45 79° NNW
Cosmos 1833 Rocket 3.4 23:10:54 10° N 23:15:19 44° NE 23:15:19 44° NE
CZ-2C R/B 3.1 23:16:51 10° N 23:21:06 56° N 23:21:06 56° N
Terra 3.6 23:41:23 28° WNW 23:41:23 28° WNW 23:44:08 10° NNW
NOSS 3-2 (C) 4.0 23:34:10 10° NNW 23:42:03 74° WSW 23:42:13 73° SW
